FW4012 Weather Reports


time (UTC)temp
F
wind
direction
speed
knots
gust
knots
rain 1hr
in
rain 24hr
in
rain mn
in
humidity
%
barometer
mb
20260506205739 52 5 2.6 3.5 0.04 6.50 1.47 93 1009.6
20260506205236 52 302 0.9 2.6 0.04 6.50 1.47 93 1009.5
20260506204736 52 300 0.9 4.3 0.04 6.50 1.47 93 1009.5
20260506204234 52 300 1.7 4.3 0.00 6.46 1.46 93 1009.4
20260506203731 52 349 2.6 3.5 0.00 6.46 1.46 93 1009.2
20260506203229 52 355 1.7 3.5 0.00 6.46 1.46 93 1009.2
20260506202728 52 338 0.0 1.7 0.00 6.46 1.46 93 1009.2
20260506202258 51 338 0.0 1.7 0.00 6.46 1.46 93 1009.1
20260506201736 51 338 0.0 2.6 0.00 6.46 1.46 93 1009.2
20260506201235 51 338 0.9 2.6 0.00 6.46 1.46 93 1009.1
20260506200749 51 338 1.7 3.5 0.00 6.46 1.46 93 1009.0
20260506200225 51 338 1.7 4.3 0.00 6.46 1.46 92 1009.0
20260506195751 51 339 0.9 4.3 0.00 7.40 1.46 92 1008.9
20260506195250 51 342 1.7 4.3 0.00 7.40 1.46 92 1008.8
20260506194751 51 336 3.5 4.3 0.00 7.40 1.46 92 1008.8
20260506194250 51 340 0.9 2.6 0.00 7.40 1.46 92 1008.8
20260506193738 52 290 0.0 0.9 0.00 7.40 1.46 92 1008.8
20260506193238 52 290 0.0 1.7 0.00 7.40 1.46 92 1008.7
20260506192744 52 290 0.9 1.7 0.00 7.40 1.46 92 1008.8
20260506192238 52 290 0.9 2.6 0.00 7.40 1.46 92 1008.7
20260506191758 52 289 0.9 2.6 0.00 7.40 1.46 92 1008.5
20260506191235 52 323 1.7 4.3 0.24 7.40 1.46 92 1008.4
20260506190733 52 338 2.6 4.3 0.51 7.40 1.46 92 1008.2
20260506190230 52 355 2.6 4.3 0.67 7.40 1.46 92 1008.1
20260506185728 52 348 1.7 4.3 0.71 7.99 1.46 92 1008.0
20260506185257 52 288 2.6 6.1 0.75 7.99 1.46 92 1008.0
20260506184736 52 279 4.3 6.1 0.83 7.99 1.46 91 1007.8
20260506184235 52 197 2.6 7.0 0.87 7.99 1.46 91 1007.7
20260506183734 53 5 1.7 7.8 0.94 7.99 1.46 91 1007.4
20260506183246 53 34 4.3 7.8 1.02 7.99 1.46 91 1007.1
20260506182746 53 101 2.6 9.6 1.06 7.99 1.46 91 1007.0
20260506182245 53 59 4.3 10.4 1.14 7.99 1.46 91 1006.7
20260506181723 53 92 7.0 9.6 1.14 7.95 1.45 91 1006.1
20260506181223 53 74 3.5 6.1 0.94 7.72 1.40 91 1007.3
20260506180722 54 79 3.5 6.1 0.67 7.44 1.32 91 1008.0
20260506180250 54 232 1.7 6.1 0.55 7.32 1.29 90 1008.1
20260506175749 54 340 2.6 7.8 0.47 7.95 1.27 90 1007.9
20260506175238 54 252 4.3 8.7 0.47 7.95 1.27 90 1007.8
20260506174736 54 107 6.1 8.7 0.39 7.87 1.25 89 1007.4
20260506174229 54 130 3.5 7.0 0.35 7.83 1.24 88 1007.4
20260506173729 55 98 4.3 6.1 0.28 7.76 1.22 88 1007.0
20260506173228 55 165 2.6 6.1 0.20 7.68 1.20 87 1007.2
20260506172725 55 237 1.7 6.1 0.16 7.64 1.19 86 1006.9
20260506172225 56 191 1.7 8.7 0.08 7.56 1.17 85 1006.6
20260506171752 56 80 2.6 11.3 0.04 7.52 1.16 84 1006.6
20260506171250 56 355 7.0 11.3 0.00 7.48 1.15 83 1006.5
20260506170728 56 355 3.5 5.2 0.00 7.48 1.15 82 1006.7
20260506170228 56 328 3.5 7.0 0.00 7.48 1.15 82 1006.6
20260506165728 56 23 3.5 9.6 0.00 8.07 1.15 81 1006.6
20260506165245 56 40 4.3 9.6 0.00 8.07 1.15 81 1006.5
20260506164739 56 11 3.5 9.6 0.00 8.07 1.15 82 1006.5
20260506164238 57 355 4.3 8.7 0.00 8.07 1.15 82 1006.4
20260506163737 57 40 6.1 12.2 0.00 8.07 1.15 82 1006.2
20260506163235 57 360 6.1 12.2 0.00 8.07 1.15 82 1006.1
20260506162732 57 360 4.3 8.7 0.00 8.07 1.15 83 1006.1
20260506162300 57 14 3.5 7.8 0.00 8.07 1.15 84 1006.1
20260506161736 58 30 4.3 7.8 0.00 8.07 1.15 84 1006.1
20260506161235 58 348 4.3 7.8 0.00 8.07 1.15 84 1006.0
20260506160735 58 360 3.5 11.3 0.00 8.07 1.15 83 1005.8
20260506160233 58 18 5.2 11.3 0.00 8.07 1.15 82 1005.6
20260506155730 58 344 3.5 7.8 0.00 8.23 1.15 82 1005.6
20260506155224 58 360 3.5 7.8 0.00 8.23 1.15 82 1005.6
20260506154723 58 44 2.6 5.2 0.00 8.23 1.15 82 1005.7
20260506154241 58 13 3.5 6.1 0.00 8.23 1.15 81 1005.9
20260506153739 58 37 3.5 10.4 0.00 8.23 1.15 82 1006.0
20260506153238 58 355 1.7 10.4 0.00 8.23 1.15 82 1005.9
20260506152737 58 28 3.5 7.8 0.00 8.23 1.15 81 1006.0
20260506152235 59 28 2.6 12.2 0.00 8.23 1.15 83 1005.9
20260506151735 58 24 5.2 12.2 0.00 8.23 1.15 84 1006.1
20260506151234 58 23 3.5 12.2 0.00 8.23 1.15 85 1006.1
20260506150732 57 355 6.1 10.4 0.00 8.23 1.15 86 1006.0
20260506150252 56 23 4.3 9.6 0.00 8.23 1.15 87 1006.4
20260506145725 56 53 5.2 10.4 0.00 8.46 1.15 87 1006.4
20260506145244 56 350 6.1 10.4 0.00 8.46 1.15 88 1006.4
20260506144749 56 50 3.5 7.8 0.00 8.46 1.15 88 1006.4
20260506144246 56 360 3.5 7.0 0.00 8.46 1.15 89 1006.4
20260506143745 56 68 1.7 9.6 0.00 8.46 1.15 89 1006.4
20260506143224 55 42 2.6 9.6 0.00 8.46 1.15 89 1006.3
20260506142742 55 46 5.2 13.9 0.00 8.46 1.15 89 1006.3
20260506142240 55 27 6.1 13.9 0.00 8.46 1.15 90 1006.3
20260506141724 56 33 7.8 12.2 0.04 8.46 1.15 90 1006.4
20260506141237 56 348 7.8 12.2 0.12 8.46 1.15 91 1006.4
20260506140736 56 60 3.5 7.8 0.24 8.46 1.15 92 1006.4
20260506140234 57 96 4.3 10.4 0.35 8.46 1.15 92 1006.5
20260506135738 56 360 6.1 11.3 0.71 8.70 1.15 93 1006.4
20260506135236 56 5 6.1 11.3 0.91 8.70 1.15 92 1006.4
20260506134750 57 320 5.2 10.4 1.46 8.70 1.15 93 1006.3
20260506134249 57 321 6.1 9.6 1.61 8.70 1.15 94 1006.3
20260506133745 55 338 4.3 8.7 1.69 8.70 1.15 94 1006.5
20260506133241 54 84 1.7 7.0 1.73 8.70 1.15 93 1006.7
20260506132759 54 32 3.5 7.0 1.73 8.70 1.15 93 1006.6
20260506132233 53 24 4.3 7.8 1.73 8.70 1.15 93 1006.8
20260506131730 53 336 3.5 7.8 1.69 8.66 1.14 92 1006.8
20260506131230 52 49 0.9 3.5 1.61 8.58 1.12 91 1006.9
20260506130728 52 33 1.7 8.7 1.50 8.46 1.09 91 1006.8
20260506130228 52 331 5.2 9.6 1.34 8.31 1.05 90 1006.8
20260506125726 52 360 7.0 13.9 0.98 8.07 0.96 90 1006.6
20260506125224 53 340 9.6 13.9 0.79 7.87 0.91 89 1006.5
20260506124723 53 304 9.6 13.9 0.24 7.32 0.77 88 1006.6
20260506124223 54 313 8.7 12.2 0.08 7.17 0.73 87 1006.8
20260506123742 55 348 7.8 13.9 0.00 7.09 0.71 85 1006.7
20260506123242 57 325 7.8 15.6 0.00 7.09 0.71 83 1006.6
20260506122741 60 323 11.3 15.6 0.00 7.09 0.71 86 1006.6
20260506122234 61 115 1.7 12.2 0.00 7.09 0.71 88 1006.4
20260506121731 61 155 7.0 13.9 0.00 7.09 0.71 88 1006.2
20260506121229 60 125 9.6 13.9 0.00 7.09 0.71 88 1006.1
20260506120735 60 119 3.5 8.7 0.00 7.09 0.71 87 1006.1
20260506120253 61 153 3.5 8.7 0.00 7.09 0.71 89 1006.1
20260506115729 61 172 6.1 8.7 0.00 7.32 0.71 89 1006.1
20260506115229 61 175 2.6 8.7 0.04 7.32 0.71 88 1005.9
20260506114728 61 117 3.5 7.8 0.12 7.32 0.71 90 1005.9
20260506114259 60 86 3.5 8.7 0.12 7.32 0.71 91 1006.0
20260506113749 59 122 5.2 14.8 0.12 7.32 0.71 90 1006.2
20260506113226 59 144 7.0 14.8 0.12 7.32 0.71 90 1006.2
20260506112724 60 140 7.0 13.9 0.12 7.32 0.71 89 1006.0
20260506112243 60 156 9.6 13.9 0.12 7.32 0.71 91 1006.1
20260506111741 59 162 6.1 9.6 0.12 7.32 0.71 92 1006.1
20260506111239 59 149 4.3 12.2 0.12 7.32 0.71 92 1006.2
20260506110736 59 153 7.8 12.2 0.12 7.32 0.71 92 1006.2
20260506110235 58 117 7.0 12.2 0.12 7.32 0.71 93 1006.2
20260506105735 57 129 6.1 13.9 0.12 7.56 0.71 92 1006.2
20260506105233 57 113 7.8 13.9 0.08 7.52 0.70 92 1006.2
20260506104746 57 138 8.7 16.5 0.00 7.44 0.68 92 1006.4
20260506104242 57 81 7.0 16.5 0.00 7.44 0.68 92 1006.2
20260506103740 56 80 7.8 14.8 0.00 7.44 0.68 92 1006.4
20260506103239 56 122 4.3 10.4 0.00 7.44 0.68 92 1006.5
20260506102734 57 131 7.0 15.6 0.00 7.44 0.68 92 1006.6
20260506102241 57 100 7.8 15.6 0.00 7.44 0.68 92 1006.4
20260506101738 57 103 7.0 12.2 0.00 7.44 0.68 93 1006.5
20260506101234 56 101 7.0 12.2 0.00 7.44 0.68 93 1006.5
20260506100732 56 39 4.3 12.2 0.00 7.44 0.68 93 1006.4
20260506100229 56 113 5.2 12.2 0.00 7.44 0.68 93 1006.5
20260506095743 56 116 8.7 18.2 0.00 7.80 0.68 93 1006.5
20260506095310 57 117 6.1 16.5 0.00 7.80 0.68 93 1006.5
20260506094747 56 134 10.4 16.5 0.00 7.80 0.68 94 1006.3
20260506094226 56 131 8.7 15.6 0.00 7.80 0.68 94 1006.3
20260506093743 56 147 7.0 13.0 0.00 7.80 0.68 94 1006.4
20260506093239 56 127 7.0 15.6 0.00 7.80 0.68 94 1006.4
20260506092738 56 113 7.0 15.6 0.00 7.80 0.68 94 1006.3
20260506092235 56 108 7.0 14.8 0.00 7.80 0.68 95 1006.4
20260506091754 56 87 9.6 14.8 0.00 7.80 0.68 95 1006.4
20260506091226 56 67 6.1 14.8 0.00 7.80 0.68 95 1006.3
20260506090728 55 128 7.0 15.6 0.00 7.80 0.68 95 1006.3
20260506090227 55 105 9.6 15.6 0.00 7.80 0.68 95 1006.3
20260506085726 56 109 5.2 12.2 0.00 7.83 0.68 95 1006.2
20260506085227 56 113 6.1 15.6 0.00 7.83 0.68 95 1006.2
20260506084726 56 142 8.7 14.8 0.00 7.83 0.68 95 1006.2
20260506084225 55 107 9.6 14.8 0.00 7.83 0.68 95 1006.2
20260506083733 55 85 6.1 16.5 0.00 7.83 0.68 95 1006.4
20260506083251 55 117 9.6 16.5 0.00 7.83 0.68 95 1006.3
20260506082731 55 71 5.2 14.8 0.00 7.83 0.68 96 1006.6
20260506082230 55 122 7.8 14.8 0.00 7.83 0.68 95 1006.6
20260506081729 55 146 7.8 16.5 0.04 7.83 0.68 96 1006.7
20260506081224 56 121 6.1 13.9 0.04 7.83 0.68 96 1006.6
20260506080724 56 137 7.8 14.8 0.04 7.83 0.68 96 1006.5
20260506080242 55 105 7.8 16.5 0.04 7.83 0.68 96 1006.5
20260506073236 55 125 7.0 16.5 0.08 7.99 0.68 96 1006.6
20260506072737 56 101 6.1 13.0 0.08 7.99 0.68 96 1006.7
20260506072233 56 109 7.0 13.0 0.08 7.99 0.68 96 1006.6
20260506071727 55 126 5.2 11.3 0.04 7.95 0.67 96 1006.6
20260506071224 55 112 5.2 14.8 0.08 7.95 0.67 96 1006.6
20260506070723 55 109 8.7 14.8 0.08 7.95 0.67 96 1006.7
20260506070243 55 148 7.0 13.9 0.08 7.95 0.67 96 1006.7
20260506062237 55 55 5.2 14.8 0.04 8.82 0.66 96 1007.0
20260506061735 55 121 7.8 14.8 0.04 8.82 0.66 96 1007.1
20260506061234 55 94 5.2 9.6 0.00 8.78 0.65 96 1007.0
20260506060751 55 101 3.5 10.4 0.04 8.78 0.65 96 1006.9
20260506060250 55 129 6.1 10.4 0.04 8.78 0.65 96 1007.0
20260506051251 54 130 3.5 11.3 0.08 9.13 0.65 96 1007.2
20260506050751 54 103 5.2 11.3 0.04 9.09 0.64 96 1007.2
20260506050252 54 170 5.2 11.3 0.04 9.09 0.64 96 1007.3
20260506044723 54 114 6.1 10.4 0.04 9.25 0.64 96 1007.4
20260506044223 54 115 5.2 10.4 0.04 9.21 0.63 96 1007.4
20260506043723 54 145 3.5 12.2 0.04 9.21 0.63 96 1007.5
20260506043239 54 114 7.8 12.2 0.08 9.21 0.63 96 1007.5
20260506042738 54 134 5.2 11.3 0.08 9.21 0.63 96 1007.6
20260506042238 54 134 7.0 13.0 0.08 9.21 0.63 96 1007.7
20260506041737 54 115 6.1 13.0 0.08 9.21 0.63 96 1007.7
20260506041237 54 121 7.0 10.4 0.12 9.21 0.63 96 1007.6
20260506040734 54 122 5.2 9.6 0.24 9.21 0.63 96 1007.6
20260506040233 55 117 6.1 8.7 0.79 9.21 0.63 96 1007.8
20260506035735 54 121 5.2 9.6 1.50 9.25 0.63 96 1007.7
20260506035224 54 113 6.1 10.4 1.61 9.25 0.63 96 1007.7
20260506034743 54 140 5.2 10.4 1.73 9.25 0.63 96 1007.6
20260506034241 54 117 6.1 11.3 1.93 9.21 0.62 96 1007.8
20260506033801 54 175 7.8 11.3 2.32 9.21 0.62 96 1007.8
20260506033238 55 141 3.5 8.7 2.28 9.17 0.61 96 1007.8
20260506032737 55 147 5.2 8.7 2.28 9.17 0.61 96 1007.8
20260506032306 54 109 5.2 11.3 2.28 9.17 0.61 96 1007.7
20260506031739 54 121 7.0 11.3 2.28 9.17 0.61 96 1007.9
20260506031237 54 94 4.3 8.7 2.24 9.13 0.60 96 1007.8
20260506030737 55 115 3.5 9.6 2.13 9.02 0.57 96 1007.9
20260506030236 55 144 4.3 9.6 1.50 8.39 0.41 96 1008.3
20260506025730 55 140 2.6 3.5 0.83 7.72 0.24 96 1008.3
20260506025230 55 257 1.7 2.6 0.71 7.60 0.21 96 1008.3
20260506024728 55 129 0.9 1.7 0.63 7.52 0.19 96 1008.4
20260506024246 55 129 0.9 1.7 0.35 7.24 0.12 96 1008.6
20260506023724 55 129 0.0 1.7 0.00 6.89 0.03 96 1008.6
20260506023224 55 130 0.0 1.7 0.00 6.89 0.03 96 1008.7
20260506022725 55 130 0.0 2.6 0.00 6.89 0.03 96 1008.7
20260506022226 55 130 0.9 2.6 0.00 6.89 0.03 96 1008.7
20260506021722 55 129 1.7 2.6 0.00 6.89 0.03 96 1008.8
20260506021241 55 130 0.9 1.7 0.00 6.89 0.03 96 1008.9
20260506020739 55 130 0.9 1.7 0.00 6.89 0.03 96 1008.9
20260506020239 54 119 0.0 1.7 0.00 6.89 0.03 96 1009.0
20260506015745 54 119 0.0 0.9 0.00 6.89 0.03 96 1009.0
20260506015246 54 119 0.0 2.6 0.00 6.89 0.03 96 1009.0
20260506014725 55 119 1.7 2.6 0.00 6.89 0.03 96 1008.9
20260506014225 55 119 1.7 2.6 0.00 6.89 0.03 96 1008.9
20260506013724 55 119 0.9 1.7 0.00 6.89 0.03 96 1009.0
20260506013300 55 119 0.0 1.7 0.04 6.89 0.03 96 1008.9
20260506012737 55 119 0.9 1.7 0.04 6.89 0.03 96 1008.9
20260506012235 55 120 0.9 1.7 0.04 6.89 0.03 96 1009.0
20260506011753 55 120 0.0 0.0 0.04 6.89 0.03 96 1009.1
20260506011227 55 120 0.0 0.0 0.04 6.89 0.03 96 1009.1
20260506010738 55 107 0.0 0.0 0.04 6.89 0.03 96 1009.1
20260506010225 55 107 0.0 0.0 0.04 6.89 0.03 96 1009.2
20260506005723 55 107 0.0 0.0 0.04 6.89 0.03 96 1009.3
20260506005248 55 107 0.0 0.0 0.04 6.89 0.03 96 1009.4
20260506004746 55 107 0.0 0.0 0.04 6.89 0.03 96 1009.4
20260506004244 55 107 0.0 0.0 0.04 6.89 0.03 96 1009.5
20260506003739 55 107 0.0 0.0 0.04 6.89 0.03 96 1009.5
20260506003236 55 107 0.0 0.0 0.00 6.85 0.02 96 1009.6
20260506002735 55 107 0.0 0.9 0.00 6.85 0.02 96 1009.7
20260506002235 55 107 0.0 1.7 0.00 6.85 0.02 96 1009.7
20260506001732 55 107 0.9 2.6 0.00 6.85 0.02 96 1009.7
20260506001230 55 107 1.7 2.6 0.00 6.85 0.02 96 1009.8
20260506000726 55 97 0.9 1.7 0.00 6.85 0.02 96 1009.7
20260506000227 55 97 0.9 3.5 0.00 6.85 0.02 95 1009.8
20260505235742 55 97 0.9 3.5 0.00 6.85 0.02 95 1009.8
20260505235301 55 126 1.7 2.6 0.00 6.85 0.02 95 1010.0
20260505234752 55 141 0.9 3.5 0.00 6.85 0.02 95 1010.0
20260505233731 55 111 1.7 2.6 0.00 6.85 0.02 95 1010.2
20260505233247 55 111 0.9 2.6 0.00 6.85 0.02 95 1010.2
20260505232751 55 111 0.9 2.6 0.00 6.85 0.02 95 1010.3
20260505232252 55 111 0.9 2.6 0.00 6.85 0.02 95 1010.1
20260505231730 55 110 0.9 2.6 0.08 6.85 0.02 95 1010.2
20260505231248 55 110 1.7 2.6 0.08 6.85 0.02 95 1010.2
20260505230747 55 201 0.9 2.6 0.08 6.85 0.02 95 1010.3
20260505230245 54 201 0.9 2.6 0.08 6.85 0.02 95 1010.4
20260505225740 54 201 0.0 0.9 0.08 6.85 0.02 95 1010.5
20260505225248 54 201 0.0 0.9 0.08 6.85 0.02 95 1010.4
20260505224726 54 201 0.0 0.9 0.08 6.85 0.02 95 1010.5
20260505224226 54 201 0.0 2.6 0.12 6.85 0.02 95 1010.5
20260505223741 54 201 0.9 2.6 0.16 6.85 0.02 95 1010.5
20260505223240 54 201 0.0 1.7 0.24 6.85 0.02 95 1010.5
20260505222738 54 201 0.9 1.7 0.51 6.85 0.02 95 1010.5
20260505222306 54 201 0.0 2.6 0.55 6.81 0.01 95 1010.6
20260505221727 54 201 0.9 3.5 0.59 6.77 0.00 95 1010.5
20260505221235 54 201 2.6 3.5 0.59 6.77 0.00 95 1010.5
20260505220734 54 174 1.7 4.3 0.59 6.77 0.00 95 1010.6
20260505220232 54 177 0.9 4.3 0.63 6.77 0.00 95 1010.6
20260505215731 54 126 1.7 4.3 0.67 6.77 1.72 95 1010.5
20260505215304 54 117 0.9 2.6 0.67 6.77 1.72 95 1010.7
20260505214737 54 115 0.0 0.9 0.63 6.73 1.71 95 1010.6
20260505214258 54 115 0.0 0.9 0.63 6.73 1.71 95 1010.8
20260505213734 54 115 0.0 1.7 0.55 6.65 1.69 95 1010.9
20260505213235 54 115 0.9 1.7 0.51 6.57 1.67 95 1010.9
20260505212735 54 115 0.9 2.6 0.28 6.34 1.61 95 1011.0
20260505212232 54 115 0.9 3.5 0.20 6.26 1.59 95 1011.1
20260505211733 54 115 0.9 3.5 0.12 6.18 1.57 95 1011.1
20260505211233 54 138 0.0 2.6 0.12 6.18 1.57 95 1011.1
20260505210734 54 138 0.9 5.2 0.12 6.18 1.57 95 1011.1
20260505210233 54 153 3.5 5.2 0.04 6.10 1.55 95 1011.2